Zurück zum Katalog

PTD-4

AktivWissenschaftSSO
NORAD 60565·PAYLOAD·🇺🇸 United States

Gestartet Aug 16, 2024 von Vandenberg Space Force Base

Loading…

Nächste Überflüge (nächste 24 Stunden)

TLE

AktuellSource: Space-Track

Epoche: Sep 13, 2026, 19:04 UTC

1 60565U 24149DB  26256.79449821  .00018019  00000-0  71572-3 0  9991
2 60565  97.6944 347.9557 0003548  97.2288 262.9352 15.25381432114312

Verfolge PTD-4 in Echtzeit mit AllMySat

Download on the App Store